Arizona Reg
Log Out
Helpline - 7AM-9PM (AZ Time)
480.409.4753
Current Registration Time
12:34:38 PM
Cycling|Walks/Running|Tri/Duathlon|Club Affairs|Results
Shopping Cart:
0 items, totaling $0.00
VOLUNTEER SIGN UP View Free Calendar
of Events
Special Offers From Vendors
Join SWSportsReg.com mailing list
to receive updates on upcoming
events in your area
Email:

Upcoming Events

Avondale Criterium #2

To update your club/team info and license #, please access your profile

Comments

N/A

Juniors Men Cat. 1/2/3/4/5 9-12 - 20 Minutes

RankBibNameLicenseClubCat.AgeStateTimeGap
1522HEMBREE Cyrus418988Thrive Youth CyclingM512AZ00:00:00
2600SOLLE Aaron552641UnattachedM510AZ00:00:00@00:00:00
3523HEMBREE Daniel1-DayThrive Youth CyclingM511AZ00:00:00@00:00:00
4525FISH Owen546768UnattachedM512AZ00:00:00@00:00:00

Juniors Men Cat. 1/2/3/4/5 13-14 - 20 Minutes

RankBibNameLicenseClubCat.AgeStateTimeGap
1700SOLLE Griffin524241UnattachedM514AZ00:00:00
2507SKINNER Grayson1-DayUnattachedM513AZ00:00:00@00:00:00

Juniors Wn Cat. 1/2/3/4/5 9-12 - 20 Minutes

RankBibNameLicenseClubCat.AgeStateTimeGap
1583JOHNSON Selah1-DayUnattachedW510AZ00:00:00
2584TEW Sophia1-DayTeam Santini USA p/b Murphy Capital AdvisorsW512AZ00:00:00@00:00:00

Juniors Wn Cat. 1/2/3/4/5 17-18 - 20 Minutes

RankBibNameLicenseClubCat.AgeStateTimeGap

Juniors Wn Cat. 1/2/3/4/5 13-14 - 20 Minutes

RankBibNameLicenseClubCat.AgeStateTimeGap
1588FERNAU Sarah 1-DayUnattachedW513AZ00:00:00

Juniors Wn Cat. 1/2/3/4/5 15-16 - 20 Minutes

RankBibNameLicenseClubCat.AgeStateTimeGap

Masters Men Cat. 1/2/3/4 50+ - 30 Minutes

RankBibNameLicenseClubCat.AgeStateTimeGap
1286MURPHY Matt48532Team Santini USA p/b Murphy Capital AdvisorsM251AZ00:00:00
2288RILEY Rodney216802Bicycle Haus RacingM255AZ00:00:00@00:00:00
3275FARABEE Richard467525Bicycle Accident Attorneys Racing TeamM352AZ00:00:00@00:00:00
4287PETRICK Kevin423114Jim Click/Arizona Cycling Racing Team Inc.M451AZ00:00:00@00:00:00
5283LACOMBE Bud523573Bicycle Haus RacingM353AZ00:00:00@00:00:00
6281KRAMER James54748Project FlemingM151AZ00:00:00@00:00:00
7280HUNT Paul112263DEAN Factory RacingM353AZ00:00:00@00:00:00
8285LINDGREN Jason104377Core Cycling TeamM450AZ00:00:00@00:00:00
9277HAMBLEN David14781UnattachedM251AZ00:00:00@00:00:00
10289SCHOBEL Gary422681Christian Cycling TucsonM451AZ00:00:00@00:00:00
11272CLAPPER Gerry223515Project FlemingM358AZ00:00:00@00:00:00
12278HAMILTON Craig1-DayProject FlemingM352AZ00:00:00@00:00:00
13282KROEMER Kurt200910Project FlemingM358AZ00:00:00@00:00:00
14273COWIN Mark192230Team Pro Power/Cycle SolutionM357DE00:00:00@00:00:00
15290WELLS Robert187551UnattachedM457AZ00:00:00@00:00:00
16276FEHRENBACH James59194UnattachedM454AZ00:00:00@00:00:00
17271BOCH Charles351286Team Santini USA p/b Murphy Capital AdvisorsM451AZ00:00:00@00:00:00
18274EDINGTON Alan493873Team Santini USA p/b Murphy Capital AdvisorsM451TN00:00:00@00:00:00
19284LEMKE Brian59550Landis/TrekM157AZ00:00:00@00:00:00
20279HOLBROOK Jim247766Project FlemingM352AZ00:00:00@00:00:00
DNS1001WESTACOTT Randy494959Team Santini USA p/b Murphy Capital AdvisorsM455AZ
DNS1002WOODBURNE James236370Landis/TrekM251AZ

Masters Men Cat. 1/2/3/4 60+ - 30 Minutes

RankBibNameLicenseClubCat.AgeStateTimeGap
1298TOWNER Lawrence35822Team Pro Power/Cycle SolutionM261AZ00:00:00
2294CULLINAN Steve87674Core Cycling TeamM262AZ00:00:00@00:00:00
3297PENNEY Jeff403108Core Cycling TeamM463AZ00:00:00@00:00:00
4295MCDORMAN Bill180347Landis/TrekM365AZ00:00:00@00:00:00
5300PAPROSKI John73934Core Cycling TeamM263AZ00:00:00@00:00:00
6292BOWMASTER Tom196028Team Pro Power/Cycle SolutionM460AZ00:00:00@00:00:00
7296PEARSON Mark546194UnattachedM474AZ00:00:00@00:00:00
DNS291BARRETT Greg183203Project FlemingM365AZ
DNS293BRAUN Donald394029Team Santini USA p/b Murphy Capital AdvisorsM464AZ
DNS299WELLS Clay366890Project FlemingM465AZ

Juniors Men Cat. 1/2/3/4/5 15-16 - 20 Minutes

RankBibNameLicenseClubCat.AgeStateTimeGap
1173BROCCO Luke423637Landis/TrekM416AZ00:00:00
2174PALMER Hayden428230Landis/TrekM416AZ00:00:00@00:00:00

Juniors Men Cat. 1/2/3/4/5 17-18 - 20 Minutes

RankBibNameLicenseClubCat.AgeStateTimeGap
1171EBY James571231Landis/TrekM417AZ00:00:00

Masters Men Cat. 4/5 40+ - 30 Minutes

RankBibNameLicenseClubCat.AgeStateTimeGap
172EVERETT Charles522331Bicycle Ranch Tucson Racing p/b Desert Mountain UrologyM444AZ00:00:00
290VASQUEZ Ed156549DEAN Factory RacingM453AZ00:00:00@00:00:00
382OSVALD Andrew521437Team WindedM441AZ00:00:00@00:00:00
476JOHNSON Jeremiah550633Team Santini USA p/b Murphy Capital AdvisorsM542AZ00:00:00@00:00:00
565BUEGHLY Randy1-DayProject FlemingM552AZ00:00:00@00:00:00
695BRONSTEYN Yakov422346Core Cycling TeamM449AZ00:00:00@00:00:00
792WESTACOTT Randy494959Team Santini USA p/b Murphy Capital AdvisorsM455AZ00:00:00@00:00:00
873GREEN Tj514334Toro PerformanceM445AZ00:00:00@00:00:00
998CANCEL Jime268618Two Wheel Jones RacingM442AZ00:00:00@00:00:00
1086SAYYED Ahmad506513UnattachedM554AZ00:00:00@00:00:00
1171ELL Jeff211358Bicycle Ranch Tucson Racing p/b Desert Mountain UrologyM441AZ00:00:00@00:00:00
1275HURSH Charles379633Bicycle Accident Attorneys Racing TeamM541AZ00:00:00@00:00:00
1379MIKKELSON Kevin296802Stone House Group p/b Monster MediaM449AZ00:00:00@00:00:00
1497MULLER Matthew494180CZ RacingM545AZ00:00:00@00:00:00
1574HOPKINS Stephen 506711UnattachedM455AZ00:00:00@00:00:00
1663BOWMASTER Tom196028Team Pro Power/Cycle SolutionM460AZ00:00:00@00:00:00
1783PEARSON Mark546194UnattachedM474AZ00:00:00@00:00:00
1866CAO Voltaire1-DayMMR / Shadetree BikesM544AZ00:00:00@00:00:00
1969DIMARCO Joe572194MMR / Shadetree BikesM540AZ00:00:00@00:00:00
2070EDINGTON Alan493873Team Santini USA p/b Murphy Capital AdvisorsM451TN00:00:00@00:00:00
2181NOGA Gregory499354Carlos O'Briens RacingM451AZ00:00:00@00:00:00
2278MAHER Anthony494013Bicycle Ranch Tucson Racing p/b Desert Mountain UrologyM449AZ00:00:00@00:00:00
2389TUNG Jacob157356Exhale BikesM443AZ00:00:00@00:00:00
2467COPELAND Curt547638Bicycle Ranch Tucson Racing p/b Desert Mountain UrologyM451AZ00:00:00@00:00:00
2577LINDGREN Jason104377Core Cycling TeamM450AZ00:00:00@00:00:00
2680MORGANSTERN Steve522249Bicycle Ranch Tucson Racing p/b Desert Mountain UrologyM551AZ00:00:00@00:00:00
2761ALVAREZ Ronny422175Bicycle Ranch Tucson Racing p/b Desert Mountain UrologyM451AZ00:00:00@00:00:00
2893WYATT Jarrett506622Project FlemingM545AZ00:00:00@00:00:00
2985PLATON David366670Team Santini USA p/b Murphy Capital AdvisorsM440AZ00:00:00@00:00:00
3062BOCH Charles351286Team Santini USA p/b Murphy Capital AdvisorsM451AZ00:00:00@00:00:00
3196TERRIQUEZ Mark250783Team WindedM443AZ00:00:00@00:00:00
3268CRINER Ty572123MMR / Shadetree BikesM540AZ00:00:00@00:00:00
3394YOUNG Jesse546062Bicycle Accident Attorneys Racing TeamM543AZ00:00:00@00:00:00
3488SWEADOR Robert142460Two Wheel Jones RacingM452AZ00:00:00@00:00:00
DNS64BRAUN Donald394029Team Santini USA p/b Murphy Capital AdvisorsM464AZ
DNS84PETRICK Kevin423114Jim Click/Arizona Cycling Racing Team Inc.M451AZ
DNS87STREIFF Todd459842Carlos O'Briens RacingM563AZ
DNS91WELLS Robert187551UnattachedM457AZ

Masters Men Cat. 1/2/3/4 35+ - 45 Minutes

RankBibNameLicenseClubCat.AgeStateTimeGap
1199STREIT Craig197252Stone House P&S Racing P/B MasiM142AZ00:00:00
2527ELLIOT Lewis57576CZ RacingM139MT00:00:00@00:00:00
32001ALVAREZ Rob 170964Stone House Group p/b Monster MediaM143AZ00:00:00@00:00:00
4182DRITLEIN Michael478648UnattachedM245AZ00:00:00@00:00:00
5193WOODBURNE James236370Landis/TrekM251AZ00:00:00@00:00:00
6185HOLECKO Matthew148285Carlos O'Briens RacingM145AZ00:00:00@00:00:00
7176ABRAHAM Brian76774TREK Store West PhoenixM340AZ00:00:00@00:00:00
8183FARABEE Richard467525Bicycle Accident Attorneys Racing TeamM352AZ00:00:00@00:00:00
9186JOY Matthew50371Landis/TrekM248AZ00:00:00@00:00:00
10191TOWNER Lawrence35822Team Pro Power/Cycle SolutionM261AZ00:00:00@00:00:00
11188OLSON Trevor1-DayCarlos O'Briens RacingM446AZ00:00:00@00:00:00
12179BROWN Terrell425439Team Santini USA p/b Murphy Capital AdvisorsM339AZ00:00:00@00:00:00
13197DALESSANDRO Carl66207US Military Endurance SportsM352AZ00:00:00@00:00:00
14200WEBSTER James83075Stone House P&S Racing P/B MasiM147AZ00:00:00@00:00:00
15190STOUT David458879Stone House P&S Racing P/B MasiM340AZ00:00:00@00:00:00
16198HAMBLEN David14781UnattachedM251AZ00:00:00@00:00:00
17178BRILHANTE Michael4845Team Santini USA p/b Murphy Capital AdvisorsM342AZ00:00:00@00:00:00
18180BYRNES Andy173538CZ RacingM350AZ00:00:00@00:00:00
19196COLLINS Tom571284Christian Cycling TucsonM535AZ00:00:00@00:00:00
20181CLAPPER Gerry223515Project FlemingM358AZ00:00:00@00:00:00
21189PENNY Nathan459498Core Cycling TeamM450AZ00:00:00@00:00:00
22195MIKKELSON Kevin296802Stone House Group p/b Monster MediaM449AZ00:00:00@00:00:00
23177BARRETT Greg183203Project FlemingM365AZ00:00:00@00:00:00
24184HAST Michael422305Christian Cycling TucsonM349AZ00:00:00@00:00:00
25187LEMKE Brian59550Landis/TrekM157AZ00:00:00@00:00:00
DNS192VERENNA Bobby36607Bicycle Ranch Tucson Racing p/b Desert Mountain UrologyM347AZ
DNS573JOHNSON Scott1-DayCore Cycling TeamM451AZ
DNS2000BRONSTEYN Yakov422346Core Cycling TeamM449AZ

Men Cat. 5 9+ - 30 Minutes

RankBibNameLicenseClubCat.AgeStateTimeGap
1559PIAZZA Jacob507938Bicycle Haus RacingM522AZ00:00:00
2544EBY James571231Landis/TrekM417AZ00:00:00@00:00:00
3564SMITH Allan546069Bicycle Accident Attorneys Racing TeamM428AZ00:00:00@00:00:00
4550JOHNSON Brighton1-DayTeam WindedM514AZ00:00:00@00:00:00
5563SIVLEY Grant 569607University of ArizonaM421AZ00:00:00@00:00:00
6555MULLIGAN Ian1-DayCarlos O'Briens RacingM529AZ00:00:00@00:00:00
7565SMITH Calvin1-DayUnattachedM532AZ00:00:00@00:00:00
8537AMBROSIO Giuseppe1-DayUnattachedM539AZ00:00:00@00:00:00
9556NISHANT Nishant1-DayUnattachedM534AZ00:00:00@00:00:00
10562SAYYED Ahmad506513UnattachedM554AZ00:00:00@00:00:00
111099MULLER Matthew494180CZ RacingM545AZ00:00:00@00:00:00
12552KELLY Cody513184Donkey LabelM428AZ00:00:00@00:00:00
13557OSCARSON Ryan572025Donkey LabelM527AZ00:00:00@00:00:00
14582GREEN Tj514334Toro PerformanceM445AZ00:00:00@00:00:00
15541COLLINS Tom571284Christian Cycling TucsonM535AZ00:00:00@00:00:00
16577ARSEO Austin419908AggressM431AZ00:00:00@00:00:00
17580MANEELY Samuel545921Carlos O'Briens RacingM517AZ00:00:00@00:00:00
18540CAO Voltaire1-DayMMR / Shadetree BikesM544AZ00:00:00@00:00:00
19549HURSH Charles379633Bicycle Accident Attorneys Racing TeamM541AZ00:00:00@00:00:00
20558PEARSON Mark546194UnattachedM474AZ00:00:00@00:00:00
21579RHODES Aidan1-DayUnattachedM319AZ00:00:00@00:00:00
22581DAVIS Nathaniel548988DEAN Factory RacingM535AZ00:00:00@00:00:00
23551KEITH Peter537794UnattachedM526NM00:00:00@00:00:00
24578BYRNES Reed1-DayUnattachedM521AZ00:00:00@00:00:00
25548HIEBEL Darren1-DayMMR / Shadetree BikesM538AZ00:00:00@00:00:00
26560PLANTE Kenneth554098University of ArizonaM523AZ00:00:00@00:00:00
27567WALTER Kenneth570912Team Santini USA p/b Murphy Capital AdvisorsM537AZ00:00:00@00:00:00
28543DIMARCO Joe572194MMR / Shadetree BikesM540AZ00:00:00@00:00:00
29566SMITH Matt569504Bicycle Accident Attorneys Racing TeamM531AZ00:00:00@00:00:00
30561RICHARD Andrew547631Donkey LabelM531AZ00:00:00@00:00:00
31570YOUNG Jesse546062Bicycle Accident Attorneys Racing TeamM543AZ00:00:00@00:00:00
32554MORGANSTERN Steve522249Bicycle Ranch Tucson Racing p/b Desert Mountain UrologyM551AZ00:00:00@00:00:00
331007HEMBREE Cyrus418988Thrive Youth CyclingM512AZ00:00:00@00:00:00

Wn Cat. 4 9+ - 30 Minutes

RankBibNameLicenseClubCat.AgeStateTimeGap
1389FERNAU Natalie447699Cycle ManiaW418AZ00:00:00
2266PAYAN Megan547840Bicycle Haus RacingW445AZ00:00:00@00:00:00
3390ROWDEN Jamie548717Bicycle Accident Attorneys Racing TeamW433AZ00:00:00@00:00:00

Masters Wn Cat. 1/2/3/4/5 35+ - 30 Minutes

RankBibNameLicenseClubCat.AgeStateTimeGap
1382LISK Anna 508452UnattachedW349AZ00:00:00
2385JOHNSON Sasha526175DEAN Factory RacingW342AZ00:00:00@00:00:00
3381GLAZIER Shawna1-DayCZ RacingW336AZ00:00:00@00:00:00
4384BARGER Charlayne195195DEAN Factory RacingW252AZ00:00:00@00:00:00
5383HOLBROOK Stephanie386220AZ Women RacingW550AZ00:00:00@00:00:00

Wn Cat. 5 9+ - 30 Minutes

RankBibNameLicenseClubCat.AgeStateTimeGap
1159LEJEUNE Cecile569999Landis/TrekW421AZ00:00:00
2268WEAVER Katherine1-DayUnattachedM530PA00:00:00@00:00:00
3393BOONE Marie1-DayUnattachedW529AZ00:00:00@00:00:00
4395CARY Rachel1-DayThe Velo Ambassador TeamW527AZ00:00:00@00:00:00
5366LARSEN Sophia1-DayUnattachedW524AZ00:00:00@00:00:00
6267TEW Wendy573114Team Santini USA p/b Murphy Capital AdvisorsW544AZ00:00:00@00:00:00
7394BUEGHLY Melody1-DayProject FlemingW552AZ00:00:00@00:00:00
8157POWELL Lisa517915UnattachedM541AZ00:00:00@00:00:00
9396COLLINS Bekah 571882Christian Cycling TucsonW532AZ00:00:00@00:00:00
10399EVERETT Whitney571289Bicycle Ranch Tucson Racing p/b Desert Mountain UrologyW536AZ00:00:00@00:00:00
11265ORNER Keri1-DayProject FlemingW543AZ00:00:00@00:00:00
12269WHITNEY Brenna1-DayProject FlemingW544AZ00:00:00@00:00:00
13397COONEY Sarah1-DayAZ Women RacingW549AZ00:00:00@00:00:00
DNS398DIVEN Kiki1-DayAZ Women RacingW545AZ
DNS400OLSON Karlene1-DayUnattachedW545AZ

Wn Pro/1/2/3 9+ - 45 Minutes

RankBibNameLicenseClubCat.AgeStateTimeGap
142COLE Janelle358569Landis/TrekW123AZ00:00:00
257O'NEILL Cara0395288DEAN Factory RacingW220AZ00:00:00@00:00:00
356HASHIMOTO Christina393358Bicycle Haus RacingW220CA00:00:00@00:00:00
447MCEVOY Kasey523629Landis/TrekW226AZ00:00:00@00:00:00
551SULLIVAN Sarah552625Landis/TrekW329AZ00:00:00@00:00:00
648MUENCH Sarah392098SkyFlash RacingW337AZ00:00:00@00:00:00
750REDMAN Paige522305Sabino Cycles RacingW331AZ00:00:00@00:00:00
841BARGER Charlayne195195DEAN Factory RacingW252AZ00:00:00@00:00:00
949QUIJADA Jennifer414481DEAN Factory RacingW225AZ00:00:00@00:00:00
1046JOHNSON Sasha526175DEAN Factory RacingW342AZ00:00:00@00:00:00
1145HART DeLayne484325DEAN Factory RacingW325AZ00:00:00@00:00:00
DNS43DIXON Pearl496845Sabino Cycles RacingW321AZ
DNS44GLAZIER Shawna1-DayCZ RacingW336AZ

Men Pro/1/2 9+ - 70 Minutes

RankBibNameLicenseClubCat.AgeStateTimeGap
132CORCORAN Johnny422630Bicycle Haus RacingM128AZ00:00:00
222SIMMONS Quinn407651LUX/Specialized by CynergyM118CO00:00:00@00:00:00
34BRYFOGLE ADAM394102Landis/TrekM126AZ00:00:00@00:00:00
45CESARIO Marcello305555CS VeloM222AZ00:00:00@00:00:00
58DUTCZAK Michael200766Landis/TrekM126AZ00:00:00@00:00:00
638MURPHY Dane 470369UnattachedM228IL00:00:00@00:00:00
736THORNTON Tanner349992Jetset RacingM127AZ00:00:00@00:00:00
821SHONE Zack367364DEAN Factory RacingM225AZ00:00:00@00:00:00
916KETTERHAGEN Robby337506UnattachedM125AZ00:00:00@00:00:00
1031BERRY Joshua228474Unicorn PrincessMPro29ID00:00:00@00:00:00
1114HUDDLESTON Max1-DayUnattachedM220CO00:00:00@00:00:00
1211FERNAU Zach368289UnattachedM217AZ00:00:00@00:00:00
1329SCHAER JanIntlUnattachedMPro27XX00:00:00@00:00:00
1420RASMUSSEN Weston394387CZ RacingM228AZ00:00:00@00:00:00
1537TAYLOR Cam458330Jetset RacingM236AZ00:00:00@00:00:00
166COLE Janelle358569Landis/TrekW123AZ00:00:00@00:00:00
1713HOLECKO Matthew148285Carlos O'Briens RacingM145AZ00:00:00@00:00:00
1823STREIT Craig197252Stone House P&S Racing P/B MasiM142AZ00:00:00@00:00:00
1925WATTS Joshua493861The Velo Ambassador TeamM242AZ00:00:00@00:00:00
2018PARKMAN Daniel359379UnattachedM131AZ00:00:00@00:00:00
2117MELENDEZ Gilberto364702Stone House P&S Racing P/B MasiM231AZ00:00:00@00:00:00
2227WOODBURNE James236370Landis/TrekM251AZ00:00:00@00:00:00
2333SALSKOV John113251The Velo Bike ShopM143AZ00:00:00@00:00:00
2430MURPHY Matt48532Team Santini USA p/b Murphy Capital AdvisorsM251AZ00:00:00@00:00:00
2510ELLIOT Lewis57576CZ RacingM139MT00:00:00@00:00:00
261ALVAREZ Rob 170964Stone House Group p/b Monster MediaM143AZ00:00:00@00:00:00
2715JOY Matthew50371Landis/TrekM248AZ00:00:00@00:00:00
2812FORBES Brian83075Stone House P&S Racing P/B MasiM147AZ00:00:00@00:00:00
2935REEDY Kamden155036Jetset RacingM243AZ00:00:00@00:00:00
3024VAN RENTERGHEM Kyle366683Stone House P&S Racing P/B MasiM133AZ00:00:00@00:00:00
312ARNOLD Scott1957DEAN Factory RacingM252AZ00:00:00@00:00:00
3226WEBSTER James83075Stone House P&S Racing P/B MasiM147AZ00:00:00@00:00:00
3328ZWART Wouter396776Landis/TrekM129AZ00:00:00@00:00:00
3419PEDONE Stephen354298Landis/TrekM128AZ00:00:00@00:00:00
353BEHM Peter342680UnattachedM225MN00:00:00@00:00:00
DNS7COORG Vasanth215254UnattachedM136AZ
DNS9EBENROTH Joe246607Bicycle Haus RacingM251AZ
DNS34REEDY Kyle195891Jetset RacingM140AZ

Men Cat. 4 9+ - 35 Minutes

RankBibNameLicenseClubCat.AgeStateTimeGap
1132EVERETT Charles522331Bicycle Ranch Tucson Racing p/b Desert Mountain UrologyM444AZ00:00:00
2136KINGSLEY Karst545162Stone House P&S Racing P/B MasiM425AZ00:00:00@00:00:00
3146PALMER Hayden428230Landis/TrekM416AZ00:00:00@00:00:00
4124BARROILHET Gonzalo548641The Velo Ambassador TeamM433AZ00:00:00@00:00:00
5148RIESS Sam459076Strada Racing ClubM418AZ00:00:00@00:00:00
6137KRUSE Brock429702The Velo Ambassador TeamM428AZ00:00:00@00:00:00
7129DOMINGUEZ JR Joe460523Bicycle Ranch Tucson Racing p/b Desert Mountain UrologyM429AZ00:00:00@00:00:00
8123BAIRD Sean236479Stone House P&S Racing P/B MasiM434AZ00:00:00@00:00:00
9130DOUGLAS Chad550568Bicycle Haus RacingM432AZ00:00:00@00:00:00
10155WILCOX Yuri488512San Tan RacingM419AZ00:00:00@00:00:00
11154VASQUEZ Ed156549DEAN Factory RacingM453AZ00:00:00@00:00:00
12151SMITH Bret130930MMR / Shadetree BikesM439AZ00:00:00@00:00:00
13147PLATON David366670Team Santini USA p/b Murphy Capital AdvisorsM440AZ00:00:00@00:00:00
14133HACKETT Geordie365744Exhale BikesM444AZ00:00:00@00:00:00
15139LUPIEN Joseph570644UnattachedM425AZ00:00:00@00:00:00
16899LISK Anna 508452UnattachedW349AZ00:00:00@00:00:00
17156MOSER Aaron523438Bicycle Haus RacingM443AZ00:00:00@00:00:00
18160NICHOLLS David296085Project FlemingM452AZ00:00:00@00:00:00
19121ALVAREZ Alexander422886Bicycle Ranch Tucson Racing p/b Desert Mountain UrologyM427AZ00:00:00@00:00:00
20122ALVAREZ Ronny422175Bicycle Ranch Tucson Racing p/b Desert Mountain UrologyM451AZ00:00:00@00:00:00
21138LAWSON Alex459443San Tan RacingM424AZ00:00:00@00:00:00
22150SILVA Victor460153UnattachedM423AZ00:00:00@00:00:00
23161WALI Osama496744San Tan RacingM426AZ00:00:00@00:00:00
24140MAHER Anthony494013Bicycle Ranch Tucson Racing p/b Desert Mountain UrologyM449AZ00:00:00@00:00:00
25141MALEY Tim521857Sabino Cycles RacingM426AZ00:00:00@00:00:00
26142MURPHY Kendrick549597Bicycle Ranch Tucson Racing p/b Desert Mountain UrologyM431AZ00:00:00@00:00:00
27145ORTEGA Aaron496532Drop Bar ArmyM426AZ00:00:00@00:00:00
28128DELANEY Brian493652Carlos O'Briens RacingM432AZ00:00:00@00:00:00
29153TUNG Jacob157356Exhale BikesM443AZ00:00:00@00:00:00
30135JANOUSEK Gregory549806San Tan RacingM422AZ00:00:00@00:00:00
31131ELL Jeff211358Bicycle Ranch Tucson Racing p/b Desert Mountain UrologyM441AZ00:00:00@00:00:00
32134HOWELL Andrew523910The Velo Ambassador TeamM428AZ00:00:00@00:00:00
DNS125BRAUN Donald394029Team Santini USA p/b Murphy Capital AdvisorsM464AZ
DNS126BROCCO Luke423637Landis/TrekM416AZ
DNS127COPELAND Curt547638Bicycle Ranch Tucson Racing p/b Desert Mountain UrologyM451AZ
DNS143NOGA Gregory499354Carlos O'Briens RacingM451AZ
DNS144OLSON Trevor1-DayCarlos O'Briens RacingM446AZ
DNS149SCHAEFER Stephen548635San Tan RacingM328AZ
DNS152STOCKTON Jim34223Two Wheel Jones RacingM446AZ
DNS158HORSTMAN Robbie480070Donkey LabelM431AZ

Men Cat. 2/3 9+ - 55 Minutes

RankBibNameLicenseClubCat.AgeStateTimeGap
1224CORCORAN Johnny422630Bicycle Haus RacingM128AZ00:00:00
2225DRITLEIN Michael478648UnattachedM245AZ00:00:00@00:00:00
3229GAYNOR Ricky523162Bicycle Haus RacingM335AZ00:00:00@00:00:00
4227FARABEE Richard467525Bicycle Accident Attorneys Racing TeamM352AZ00:00:00@00:00:00
5221BROWN Stephen404500UnattachedM333AZ00:00:00@00:00:00
6254MARTENS Philip329520Bicycle Haus RacingM345AZ00:00:00@00:00:00
7239QUISMORIO Chris428119Paragon CyclingM334AZ00:00:00@00:00:00
8248WATTS Joshua493861The Velo Ambassador TeamM242AZ00:00:00@00:00:00
9237MCLAREN Jonathan423690Pay'N'Take FlagstaffM330AZ00:00:00@00:00:00
10252RILEY Rodney216802Bicycle Haus RacingM255AZ00:00:00@00:00:00
11234KENNEDY Dillon422855San Tan RacingM328AZ00:00:00@00:00:00
12240RASMUSSEN Weston394387CZ RacingM228AZ00:00:00@00:00:00
13253ALDECOA Robert397050The Velo Ambassador TeamM336AZ00:00:00@00:00:00
14223CARRILLO Leo304297Stone House P&S Racing P/B MasiM352AZ00:00:00@00:00:00
15222BROWN Terrell425439Team Santini USA p/b Murphy Capital AdvisorsM339AZ00:00:00@00:00:00
16235LACOMBE Bud523573Bicycle Haus RacingM353AZ00:00:00@00:00:00
17897O'NEILL Cara0395288DEAN Factory RacingW220AZ00:00:00@00:00:00
18226EBENROTH Joe246607Bicycle Haus RacingM251AZ00:00:00@00:00:00
19231HORNBECK Kyle349532Pay'N'Take FlagstaffM337AZ00:00:00@00:00:00
20245STOUT David458879Stone House P&S Racing P/B MasiM340AZ00:00:00@00:00:00
21250HASHIMOTO Christina393358Bicycle Haus RacingW220CA00:00:00@00:00:00
22249QUIJADA Jennifer414481DEAN Factory RacingW225AZ00:00:00@00:00:00
23246THOMSON Brendan544739Bicycle Haus RacingM342AZ00:00:00@00:00:00
24232JONES Scott422930San Tan RacingM327AZ00:00:00@00:00:00
25241RICE Tony384568Bicycle Haus RacingM338AZ00:00:00@00:00:00
26236MCCORMACK Sean 324434The Velo Ambassador TeamM334AZ00:00:00@00:00:00
27230HARSLEY Kevin107784Stone House P&S Racing P/B MasiM347AZ00:00:00@00:00:00
28238MELENDEZ Gilberto364702Stone House P&S Racing P/B MasiM231AZ00:00:00@00:00:00
29247VLAD Peter422490San Tan RacingM332AZ00:00:00@00:00:00
30898REDMAN Paige522305Sabino Cycles RacingW331AZ00:00:00@00:00:00
31243SALMON Kevin476479Pay'N'Take FlagstaffM329AZ00:00:00@00:00:00
32233KELTZ Kale140286Bicycle Haus RacingM244AZ00:00:00@00:00:00
DNS228FERNAU Zach368289UnattachedM217AZ
DNS242RODRIGUEZ Nardo155571Carlos O'Briens RacingM344AZ
DNS244SPELMAN Jake305505Bicycle Haus RacingM226AZ
DNS617VERENNA Bobby36607Bicycle Ranch Tucson Racing p/b Desert Mountain UrologyM347AZ

Masters Men Cat. 1/2/3/4 45+ - 35 Minutes

RankBibNameLicenseClubCat.AgeStateTimeGap
1608DRITLEIN Michael478648UnattachedM245AZ00:00:00
2615KRAMER James54748Project FlemingM151AZ00:00:00@00:00:00
3610FARABEE Richard467525Bicycle Accident Attorneys Racing TeamM352AZ00:00:00@00:00:00
4607CARRILLO Leo304297Stone House P&S Racing P/B MasiM352AZ00:00:00@00:00:00
5612FRANCIS Robert50829Velo Track Cycling TeamM155AZ00:00:00@00:00:00
6609EDINGTON Alan493873Team Santini USA p/b Murphy Capital AdvisorsM451TN00:00:00@00:00:00
7604BENNETT Danny49417Landis/TrekM149AZ00:00:00@00:00:00
8619HARSLEY Kevin107784Stone House P&S Racing P/B MasiM347AZ00:00:00@00:00:00
9616SCHOBEL Gary422681Christian Cycling TucsonM451AZ00:00:00@00:00:00
10614HOLBROOK Jim247766Project FlemingM352AZ00:00:00@00:00:00
11338HAST Michael422305Christian Cycling TucsonM349AZ00:00:00@00:00:00
12611FLEMING Timothy204049Project FlemingM345AZ00:00:00@00:00:00
13605BOCH Charles351286Team Santini USA p/b Murphy Capital AdvisorsM451AZ00:00:00@00:00:00
DNS606BRAUN Donald394029Team Santini USA p/b Murphy Capital AdvisorsM464AZ
DNS618WESTACOTT Randy494959Team Santini USA p/b Murphy Capital AdvisorsM455AZ

Men Cat. 3/4 9+ - 45 Minutes

RankBibNameLicenseClubCat.AgeStateTimeGap
1324BARROILHET Gonzalo548641The Velo Ambassador TeamM433AZ00:00:00
2893DRITLEIN Michael478648UnattachedM245AZ00:00:00@00:00:00
3353PALMER Hayden428230Landis/TrekM416AZ00:00:00@00:00:00
4325BROWN Stephen404500UnattachedM333AZ00:00:00@00:00:00
5332EVERETT Charles522331Bicycle Ranch Tucson Racing p/b Desert Mountain UrologyM444AZ00:00:00@00:00:00
6335GAYNOR Ricky523162Bicycle Haus RacingM335AZ00:00:00@00:00:00
7896WILCOX Yuri488512San Tan RacingM419AZ00:00:00@00:00:00
8894MARTENS Philip329520Bicycle Haus RacingM345AZ00:00:00@00:00:00
9347LUPIEN Joseph570644UnattachedM425AZ00:00:00@00:00:00
10329DOMINGUEZ JR Joe460523Bicycle Ranch Tucson Racing p/b Desert Mountain UrologyM429AZ00:00:00@00:00:00
11369KINGSLEY Karst545162Stone House P&S Racing P/B MasiM425AZ00:00:00@00:00:00
12361SCHAEFER Stephen548635San Tan RacingM328AZ00:00:00@00:00:00
13356QUISMORIO Chris428119Paragon CyclingM334AZ00:00:00@00:00:00
14358RIESS Sam459076Strada Racing ClubM418AZ00:00:00@00:00:00
15365VLAD Peter422490San Tan RacingM332AZ00:00:00@00:00:00
16345KRUSE Brock429702The Velo Ambassador TeamM428AZ00:00:00@00:00:00
17354PENNY Nathan459498Core Cycling TeamM450AZ00:00:00@00:00:00
18355PLATON David366670Team Santini USA p/b Murphy Capital AdvisorsM440AZ00:00:00@00:00:00
19341JANOUSEK Gregory549806San Tan RacingM422AZ00:00:00@00:00:00
20363SMITH Bret130930MMR / Shadetree BikesM439AZ00:00:00@00:00:00
21326CARRILLO Leo304297Stone House P&S Racing P/B MasiM352AZ00:00:00@00:00:00
22357RICE Tony384568Bicycle Haus RacingM338AZ00:00:00@00:00:00
23370HORSTMAN Robbie480070Donkey LabelM431AZ00:00:00@00:00:00
24362SILVA Victor460153UnattachedM423AZ00:00:00@00:00:00
25350MURPHY Kendrick549597Bicycle Ranch Tucson Racing p/b Desert Mountain UrologyM431AZ00:00:00@00:00:00
26348MALEY Tim521857Sabino Cycles RacingM426AZ00:00:00@00:00:00
27352ORTEGA Aaron496532Drop Bar ArmyM426AZ00:00:00@00:00:00
28368HEILLER Joshua394839San Tan RacingM427AZ00:00:00@00:00:00
29331ELL Jeff211358Bicycle Ranch Tucson Racing p/b Desert Mountain UrologyM441AZ00:00:00@00:00:00
30339HORNBECK Kyle349532Pay'N'Take FlagstaffM337AZ00:00:00@00:00:00
31330DOUGLAS Chad550568Bicycle Haus RacingM432AZ00:00:00@00:00:00
32323ALVAREZ Alexander422886Bicycle Ranch Tucson Racing p/b Desert Mountain UrologyM427AZ00:00:00@00:00:00
33367MCCORMACK Sean 324434The Velo Ambassador TeamM334AZ00:00:00@00:00:00
34343KENNEDY Dillon422855San Tan RacingM328AZ00:00:00@00:00:00
35342JONES Scott422930San Tan RacingM327AZ00:00:00@00:00:00
36895MOSER Aaron523438Bicycle Haus RacingM443AZ00:00:00@00:00:00
37336HACKETT Geordie365744Exhale BikesM444AZ00:00:00@00:00:00
DNS322ABRAHAM Brian76774TREK Store West PhoenixM340AZ
DNS327DELANEY Brian493652Carlos O'Briens RacingM432AZ
DNS328DESSENS VIDAL Marco571626The Velo Ambassador TeamM428AZ
DNS333FARABEE Richard467525Bicycle Accident Attorneys Racing TeamM352AZ
DNS334FLEMING Timothy204049Project FlemingM345AZ
DNS337HARSLEY Kevin107784Stone House P&S Racing P/B MasiM347AZ
DNS340HOWELL Andrew523910The Velo Ambassador TeamM428AZ
DNS344QUIJADA Jennifer414481DEAN Factory RacingW225AZ
DNS346LAWSON Alex459443San Tan RacingM424AZ
DNS349MCLAREN Jonathan423690Pay'N'Take FlagstaffM330AZ
DNS351OLSON Trevor1-DayCarlos O'Briens RacingM446AZ
DNS359RODRIGUEZ Nardo155571Carlos O'Briens RacingM344AZ
DNS360SALMON Kevin476479Pay'N'Take FlagstaffM329AZ
DNS364STOCKTON Jim34223Two Wheel Jones RacingM446AZ
DNS371WALI Osama496744San Tan RacingM426AZ

OUR SPONSORS

MORE INFO

CONTACT US

SWSportsReg.com
700 Anatolia Ln
Las Vegas, Nevada 89125

SWSportsReg.com@gmail.com

+1-480-409-4753 (7 AM - 9 PM NV Time)


A division of La Roue d'Or, LLC

SEARCH

© COPYRIGHT 2016 ALL RIGHTS RESERVED. | DESIGNED BY WEB-OP